Flag for Japan Weather past 2 weeks in Shizuoka, Japan

Now
64 °F

Sunny.


Feels Like: 64 °F
Forecast: 52 / 75 °F
Wind: 2 mph from West

Location: Yokota Ab

Current Time: Apr 28, 2015 at 7:59:56 AM

Latest Report: Apr 28, 2015 at 6:58 AM


Visibility: 10 mi

Pressure: 30.12 "Hg

Humidity: 58%

Dew point: 49 °F

Location of ShizuokaLocation

Historic Weather in Shizuoka — Graph

°F

Shizuoka temperature yesterday

Maximum temperature yesterday: 79 °F (at 12:58 PM)
Minimum temperature yesterday: 53 °F (at 4:58 AM)
Average temperature yesterday: 66 °F

Past Weeks' High & Low Weather Summary

 TemperatureHumidityPressure
High79 °F (Apr 27, 12:58 PM)100% (Apr 13, 7:58 PM)30.42 "Hg (Apr 13, 7:58 PM)
Low43 °F (Apr 18, 5:58 AM)27% (Apr 23, 11:58 AM)29.51 "Hg (Apr 15, 2:58 PM)
Average59 °F71%29.98 "Hg
* Reported Apr 13 6:58 AM — Apr 28 6:58 AM, Shizuoka, Weather by CustomWeather, © 2015

Note: Actual official high and low records may vary slightly from our data, if they occured in-between our weather recording intervals... More about our weather records

Advertising

Shizuoka weather history for previous 24 hours

 ConditionsComfort  
Time TempWeatherWind HumidityBarometerVisibility
6:58 AM
Tue, Apr 28
64 °FSunny.2 mph58%30.12 "Hg10 mi
5:58 AM59 °FSunny.No wind63%30.11 "Hg10 mi
4:58 AM57 °FSunny.1 mph66%30.09 "Hg10 mi
3:58 AM58 °FClear.No wind68%30.09 "Hg10 mi
2:58 AM59 °FClear.No wind69%30.08 "Hg10 mi
1:58 AM59 °FClear.5 mph73%30.08 "Hg10 mi
12:58 AM60 °FClear.1 mph73%30.08 "Hg10 mi
11:58 PM
Mon, Apr 27
61 °FClear.2 mph71%30.09 "Hg10 mi
10:58 PM60 °FClear.No wind81%30.09 "Hg10 mi
9:58 PM64 °FClear.No wind76%30.09 "Hg10 mi
8:58 PM64 °FClear.3 mph73%30.08 "Hg10 mi
7:58 PM67 °FClear.2 mph65%30.06 "Hg10 mi
6:58 PM68 °FClear.6 mph61%30.04 "Hg10 mi
5:58 PM72 °FSunny.10 mph53%30.03 "Hg10 mi
4:58 PM75 °FSunny.9 mph47%30.02 "Hg10 mi
3:58 PM77 °FSunny.14 mph47%30.01 "Hg10 mi
2:58 PM77 °FSunny.10 mph49%30.02 "Hg10 mi
1:58 PM77 °FSunny.10 mph50%30.04 "Hg10 mi
12:58 PM79 °FSunny.10 mph46%30.05 "Hg10 mi
11:58 AM77 °FSunny.10 mph46%30.08 "Hg10 mi
10:58 AM75 °FSunny.3 mph49%30.10 "Hg10 mi
9:58 AM72 °FSunny.3 mph53%30.12 "Hg10 mi
8:58 AM68 °FSunny.6 mph59%30.13 "Hg10 mi
7:58 AM64 °FSunny.2 mph65%30.14 "Hg10 mi
Weather by CustomWeather, © 2015

See weather overviewHow to use our weather pages